Wind_Speed
37 36 32 32 35 35 33 32 30 30 32 32 32 31 31 30 29 29 29 29 28 27 27 26 25 24 24 24 24 25 26 27 28 30 31 33 35 36 38 39 41 43 44 46
36 34 32 35 34 34 34 33 31 33 35 35 35 33 32 31 31 32 31 30 29 28 27 26 26 26 26 26 27 28 29 31 32 33 35 36 38 40 42 43 45 47 49 50
37 35 34 35 35 35 36 35 35 38 38 38 38 37 33 33 33 33 32 31 30 28 27 27 27 28 28 29 30 32 33 34 36 37 39 40 42 43 45 47 49 51 53 55
39 37 36 36 37 37 39 37 39 40 41 41 41 41 34 32 33 32 31 31 30 29 29 29 29 30 31 32 34 35 37 38 40 41 42 44 45 47 49 50 53 55 57 59
42 40 40 40 39 41 42 41 42 43 44 45 43 43 38 32 32 32 31 31 30 30 31 31 32 33 34 36 37 39 40 42 43 45 46 48 49 51 53 55 57 59 61 63
45 45 45 44 43 44 45 45 45 46 47 48 42 42 42 33 30 31 31 31 32 33 33 34 35 36 38 39 41 42 44 45 47 48 50 51 53 54 56 59 61 63 64 66
47 48 48 48 47 46 46 46 47 48 48 48 42 42 41 35 32 31 31 33 34 35 35 36 38 40 41 43 44 46 47 49 50 51 53 54 56 58 61 63 65 66 68 70
52 52 50 50 49 48 47 47 47 47 48 46 44 43 39 36 33 32 33 35 36 37 38 40 41 43 45 46 48 49 51 52 54 55 57 58 60 63 65 67 69 70 72 74
52 53 52 50 49 48 47 46 43 45 46 46 45 42 39 36 35 36 37 38 38 39 41 43 45 47 48 50 51 52 54 56 57 59 61 63 65 67 68 71 73 74 76 77
50 52 51 48 46 46 45 43 43 44 45 45 45 42 40 38 39 40 41 41 42 43 45 47 49 51 52 53 54 56 58 59 61 63 64 66 68 70 72 74 75 77 78 79
47 49 49 47 44 42 42 43 43 44 45 46 45 44 44 45 45 44 44 44 46 48 50 52 53 55 55 56 58 59 61 62 64 65 67 70 72 73 75 77 78 79 81 81
44 46 48 46 45 45 45 45 45 45 45 45 47 49 50 49 49 48 48 49 50 52 54 55 56 57 58 59 60 62 63 65 66 68 70 72 74 76 77 79 80 81 81 82
45 47 47 48 48 47 46 45 45 46 47 50 51 52 53 52 52 52 52 53 55 56 57 59 59 60 60 61 63 64 66 67 69 71 73 75 76 78 80 81 81 81 82 82
48 49 50 50 48 47 47 48 48 50 54 55 54 53 54 54 55 56 57 58 59 60 61 61 61 61 62 64 65 66 68 70 72 73 75 77 78 80 81 81 81 81 82 82
52 52 51 51 51 53 53 53 54 57 58 59 57 56 56 56 58 59 60 62 62 63 63 63 63 63 64 66 67 69 70 72 74 76 77 78 79 80 80 81 81 81 82 83
55 54 54 55 55 57 58 58 60 61 61 61 60 58 57 57 60 61 62 63 63 64 64 64 64 65 66 68 69 71 73 74 76 77 77 78 79 79 80 80 81 81 82 82
55 56 57 58 58 59 63 60 61 61 61 60 61 58 58 60 61 63 63 64 64 64 64 65 65 67 68 69 71 72 74 75 76 76 77 77 78 79 79 80 80 80 80 79
57 57 58 60 61 65 63 59 60 62 61 61 61 60 61 62 63 64 64 64 64 64 65 65 66 67 69 70 71 73 74 74 75 75 75 76 77 78 79 78 78 77 75 73
58 57 59 61 63 66 63 61 61 61 62 61 62 62 63 64 65 65 64 64 65 65 65 65 66 68 69 70 71 72 72 73 73 74 75 76 76 76 76 75 74 72 71 68
59 59 60 63 65 67 63 62 62 63 66 63 63 63 64 65 65 63 64 65 65 65 65 66 67 68 69 69 70 71 71 72 72 73 74 74 74 73 73 72 70 68 66 63
58 59 60 62 64 66 63 63 62 64 65 64 64 65 65 65 65 65 65 64 65 65 66 67 67 68 69 69 70 70 70 71 71 71 71 71 71 70 69 68 66 64 62 60
60 60 61 62 64 64 62 62 62 64 64 64 64 65 65 66 66 66 65 65 65 66 67 67 67 68 69 69 69 69 69 69 69 69 68 68 67 66 65 64 62 61 59 59
62 61 61 62 63 62 61 61 62 62 63 63 64 65 65 66 66 66 66 66 66 66 67 67 67 68 68 68 68 68 67 67 67 65 65 64 64 63 62 61 60 59 59 59
63 61 61 61 62 62 62 62 64 64 64 64 64 64 65 65 65 65 65 65 65 66 66 67 67 67 66 67 67 66 65 64 63 62 61 61 61 61 60 59 59 59 59 59
61 61 61 62 63 64 64 64 65 65 65 65 65 65 65 65 64 63 63 63 64 65 66 66 66 65 64 64 64 62 61 60 59 59 59 60 60 59 59 59 59 59 59 59
60 60 61 62 63 64 65 65 65 65 65 65 65 64 63 62 62 61 62 63 64 64 64 64 63 62 61 60 59 58 58 58 58 59 59 59 59 59 59 59 59 59 60 60
Wind_Direction
269 268 269 267 265 267 269 269 267 266 266 266 266 267 269 271 272 273 272 272 272 272 273 273 274 275 277 279 281 282 284 285 286 287 288 288 288 288 288 287 287 286 285 284
267 268 266 264 266 268 268 268 268 266 265 266 266 266 268 271 272 272 272 271 270 270 270 270 272 274 277 279 282 284 285 286 286 287 287 287 287 287 286 286 286 285 284 283
267 266 265 266 266 267 267 268 267 266 266 266 268 266 267 269 269 269 269 268 267 266 266 268 270 273 276 279 282 285 286 286 286 286 286 286 286 286 286 285 284 284 283 283
264 267 268 268 268 268 268 267 266 267 268 268 268 269 266 267 267 266 265 264 263 264 265 268 270 273 276 279 282 284 285 285 285 286 286 286 286 286 286 285 284 283 283 282
265 266 267 268 269 268 268 267 268 268 268 268 267 270 269 266 265 264 263 262 263 264 266 269 272 275 277 279 281 283 284 285 285 286 286 286 286 285 285 284 284 283 282 282
265 266 267 268 268 267 267 268 267 267 267 267 269 270 268 266 263 262 262 263 264 266 268 271 274 276 278 280 281 283 284 285 285 286 286 286 286 286 286 285 285 284 283 282
264 265 266 267 267 267 267 267 266 264 264 267 268 266 267 267 263 261 262 263 265 267 270 273 275 277 279 280 282 283 285 286 287 287 287 287 287 287 287 287 286 286 285 284
265 264 264 265 266 266 264 262 261 263 265 266 264 264 266 267 267 266 265 265 267 270 272 274 276 278 280 282 284 286 287 288 288 289 289 289 289 289 289 288 288 288 287 286
263 263 262 262 263 262 261 260 260 261 262 264 264 265 265 268 271 270 270 271 273 275 276 277 279 280 282 284 286 288 288 289 290 290 290 290 290 290 290 290 290 290 290 290
261 262 261 260 259 258 258 258 256 257 260 263 264 267 269 271 271 272 275 277 279 280 280 281 282 283 285 287 288 289 289 290 291 291 291 291 291 291 291 291 291 291 291 291
257 258 259 258 258 258 256 255 256 257 259 262 267 270 271 272 273 276 278 280 280 280 280 281 283 284 286 287 287 288 289 289 290 291 291 291 291 292 292 292 292 292 292 292
255 255 256 256 255 254 253 254 255 259 264 267 269 269 271 273 276 279 281 281 280 280 281 282 283 284 285 286 287 288 289 290 290 291 292 292 292 292 292 292 292 292 292 292
253 253 253 253 254 255 257 260 262 263 263 264 266 269 273 277 279 279 279 279 280 280 281 282 283 284 285 286 287 288 290 291 291 292 292 292 292 292 293 292 293 293 293 294
254 254 254 256 260 260 260 260 260 261 262 265 268 272 275 276 277 277 278 278 279 279 280 281 282 283 285 286 288 289 290 291 292 292 293 293 292 292 293 293 293 294 294 295
257 258 258 258 258 259 259 260 261 262 264 266 269 271 274 275 275 275 275 276 278 279 280 281 283 284 286 287 289 290 290 291 292 292 292 292 292 292 293 294 294 295 295 296
260 262 262 260 260 260 260 261 262 263 265 268 271 273 275 275 273 273 274 275 276 278 279 281 283 285 287 288 289 289 290 291 291 292 291 292 292 293 293 294 295 295 296 296
258 260 261 261 261 261 260 261 264 266 268 270 271 273 272 270 270 271 272 274 276 278 280 282 284 285 286 287 288 289 289 290 291 291 291 292 293 293 294 295 295 296 296 297
253 254 257 259 260 260 264 265 266 267 267 269 270 270 269 269 270 271 273 275 277 278 280 282 284 285 286 286 287 288 289 290 290 291 291 292 293 294 295 295 296 297 297 298
252 254 256 258 260 262 263 265 266 268 268 268 269 269 269 269 270 272 274 275 277 279 281 282 284 285 286 286 287 288 289 290 290 291 291 292 293 294 295 296 297 298 298 298
254 255 256 258 260 262 265 265 266 266 266 268 269 269 270 270 271 273 275 277 279 281 282 283 285 286 286 287 287 288 289 290 291 291 292 293 294 295 296 297 298 298 298 298
254 256 258 260 262 264 265 266 266 266 268 268 268 268 269 271 272 274 277 279 280 282 283 285 286 286 286 287 288 288 289 290 291 291 293 294 295 296 296 297 297 297 297 297
257 258 259 261 263 265 267 267 266 267 268 268 268 269 270 272 275 277 278 280 282 283 284 285 285 286 286 287 288 289 290 290 291 292 294 294 295 295 296 296 296 296 296 297
259 260 262 263 265 267 267 267 267 267 268 268 269 270 272 275 277 278 280 282 283 284 284 285 285 286 286 287 288 289 290 291 292 293 293 294 294 295 295 295 295 296 296 297
259 261 263 264 265 266 267 266 267 267 268 269 271 272 274 275 277 279 281 282 283 283 283 284 285 286 287 288 289 290 290 291 292 293 293 294 294 294 294 294 295 296 296 297
261 263 264 265 266 266 265 265 266 267 269 271 272 273 275 277 279 280 281 281 282 282 283 284 286 287 287 288 289 290 290 291 292 293 293 293 293 293 293 293 295 295 296 297
263 264 265 264 263 263 264 265 267 269 271 272 273 275 277 278 279 279 280 281 282 283 284 286 287 287 287 288 289 290 291 292 292 292 292 292 292 292 293 293 294 295 296 297
Height
5827 5829 5831 5830 5828 5828 5829 5830 5830 5830 5828 5827 5827 5827 5827 5827 5827 5827 5826 5826 5826 5825 5825 5825 5824 5824 5823 5823 5822 5822 5821 5820 5819 5817 5816 5814 5813 5811 5809 5807 5805 5803 5800 5798
5819 5821 5822 5820 5820 5820 5821 5821 5822 5821 5819 5818 5818 5819 5820 5819 5819 5819 5818 5818 5818 5818 5818 5818 5817 5817 5816 5815 5814 5814 5813 5812 5810 5809 5807 5806 5804 5801 5799 5797 5794 5792 5789 5786
5809 5812 5812 5812 5812 5812 5812 5813 5813 5811 5810 5809 5809 5810 5813 5812 5811 5810 5810 5810 5810 5810 5810 5810 5810 5809 5808 5807 5806 5805 5804 5803 5802 5800 5798 5796 5794 5791 5789 5786 5783 5780 5777 5774
5799 5802 5803 5803 5803 5803 5802 5804 5802 5801 5800 5799 5800 5798 5804 5804 5802 5802 5802 5802 5802 5803 5802 5802 5802 5801 5800 5799 5798 5797 5795 5793 5792 5790 5788 5786 5783 5780 5777 5774 5771 5768 5764 5761
5790 5792 5792 5793 5795 5793 5792 5793 5792 5791 5790 5788 5789 5790 5793 5795 5794 5793 5794 5794 5794 5794 5794 5793 5793 5792 5791 5790 5788 5787 5785 5783 5781 5779 5776 5774 5771 5768 5764 5761 5758 5754 5751 5747
5780 5780 5781 5782 5783 5783 5782 5782 5781 5779 5778 5777 5781 5780 5780 5785 5785 5784 5785 5785 5785 5785 5785 5784 5783 5782 5781 5779 5778 5776 5774 5772 5770 5767 5764 5761 5758 5754 5751 5747 5743 5739 5735 5731
5768 5768 5768 5769 5770 5771 5771 5771 5769 5767 5767 5768 5770 5769 5771 5774 5775 5776 5776 5776 5775 5775 5775 5774 5773 5771 5770 5768 5766 5764 5762 5759 5756 5753 5750 5747 5744 5740 5736 5732 5727 5723 5718 5714
5754 5755 5757 5757 5758 5758 5758 5759 5759 5758 5757 5758 5758 5758 5762 5763 5764 5765 5766 5766 5766 5766 5765 5763 5762 5760 5758 5755 5753 5751 5748 5746 5742 5739 5735 5731 5727 5723 5719 5714 5710 5705 5700 5695
5740 5741 5742 5744 5745 5746 5745 5746 5749 5748 5746 5746 5746 5749 5752 5753 5754 5754 5754 5754 5755 5754 5753 5751 5749 5746 5744 5742 5739 5737 5734 5730 5727 5723 5719 5715 5710 5706 5701 5696 5691 5686 5681 5675
5727 5727 5728 5730 5731 5733 5735 5736 5736 5735 5735 5735 5736 5738 5741 5742 5742 5742 5742 5742 5742 5741 5739 5737 5734 5732 5730 5727 5725 5722 5718 5715 5711 5707 5703 5698 5693 5688 5684 5678 5673 5667 5661 5655
5714 5715 5716 5718 5720 5723 5724 5724 5724 5725 5725 5726 5727 5731 5730 5729 5730 5731 5731 5730 5729 5727 5725 5723 5720 5718 5715 5713 5710 5706 5703 5700 5695 5691 5686 5681 5676 5671 5665 5660 5654 5648 5642 5635
5702 5702 5703 5706 5709 5709 5710 5712 5714 5715 5716 5717 5716 5719 5716 5717 5717 5718 5718 5717 5715 5713 5711 5708 5706 5703 5700 5697 5694 5691 5687 5683 5679 5674 5669 5663 5657 5652 5646 5640 5634 5628 5621 5615
5689 5689 5691 5693 5696 5697 5699 5702 5704 5704 5704 5702 5702 5706 5704 5705 5705 5704 5703 5701 5699 5697 5695 5693 5691 5688 5685 5682 5678 5675 5670 5666 5661 5656 5651 5645 5639 5633 5626 5620 5614 5607 5601 5594
5674 5675 5679 5683 5684 5686 5688 5690 5690 5689 5688 5689 5691 5694 5693 5691 5690 5689 5688 5685 5684 5682 5680 5678 5675 5673 5669 5665 5662 5658 5653 5648 5643 5638 5632 5626 5620 5613 5607 5600 5593 5587 5580 5573
5658 5661 5666 5669 5670 5671 5672 5674 5675 5673 5674 5675 5678 5679 5680 5678 5676 5673 5671 5670 5668 5666 5664 5662 5660 5656 5653 5649 5644 5639 5635 5630 5624 5619 5613 5607 5600 5593 5587 5580 5573 5567 5560 5552
5644 5646 5649 5652 5654 5653 5654 5659 5658 5658 5659 5659 5662 5665 5666 5663 5658 5656 5655 5654 5652 5651 5649 5646 5643 5640 5636 5631 5626 5621 5616 5611 5605 5600 5594 5587 5580 5574 5567 5560 5554 5547 5539 5532
5629 5631 5632 5634 5636 5633 5635 5645 5643 5644 5645 5646 5645 5651 5648 5645 5641 5640 5639 5637 5637 5635 5633 5630 5627 5623 5618 5613 5608 5603 5597 5591 5586 5581 5574 5568 5561 5554 5547 5541 5534 5526 5519 5511
5615 5616 5616 5615 5616 5612 5625 5630 5629 5627 5628 5630 5629 5631 5629 5627 5626 5624 5623 5622 5620 5618 5616 5613 5609 5605 5600 5595 5590 5585 5579 5573 5567 5562 5555 5548 5541 5535 5528 5521 5513 5506 5499 5492
5600 5601 5600 5599 5597 5598 5608 5613 5613 5611 5611 5614 5612 5611 5610 5609 5609 5609 5608 5605 5603 5601 5598 5595 5591 5587 5582 5577 5571 5566 5561 5555 5549 5543 5536 5529 5522 5515 5508 5501 5494 5487 5480 5473
5585 5585 5585 5583 5581 5582 5595 5598 5595 5592 5591 5598 5595 5594 5593 5592 5592 5595 5590 5588 5586 5583 5580 5576 5572 5568 5563 5557 5553 5548 5543 5536 5531 5524 5517 5510 5503 5496 5489 5482 5475 5468 5462 5456
5569 5568 5568 5567 5565 5567 5577 5578 5576 5575 5577 5580 5578 5577 5576 5576 5576 5576 5573 5571 5567 5564 5561 5557 5553 5549 5544 5539 5535 5530 5525 5519 5511 5504 5498 5491 5484 5477 5470 5464 5457 5451 5446 5440
5553 5553 5553 5553 5550 5555 5559 5558 5557 5556 5557 5559 5560 5560 5560 5559 5557 5557 5555 5552 5549 5545 5542 5538 5535 5530 5525 5520 5516 5512 5506 5500 5492 5486 5480 5473 5466 5460 5453 5447 5441 5436 5430 5425
5536 5538 5538 5539 5539 5539 5538 5538 5535 5537 5539 5540 5542 5543 5543 5542 5540 5538 5536 5534 5530 5527 5523 5519 5516 5512 5507 5501 5497 5493 5487 5480 5474 5468 5461 5455 5449 5443 5437 5431 5426 5420 5415 5410
5519 5521 5521 5522 5521 5520 5518 5517 5516 5517 5520 5523 5525 5526 5526 5524 5522 5520 5518 5515 5511 5507 5503 5499 5497 5493 5488 5482 5477 5473 5467 5461 5455 5450 5444 5438 5432 5427 5421 5416 5410 5405 5400 5394
5504 5505 5505 5503 5502 5500 5498 5497 5497 5500 5503 5505 5507 5508 5508 5507 5505 5503 5500 5496 5492 5488 5484 5480 5477 5474 5469 5463 5458 5454 5448 5443 5437 5432 5427 5422 5416 5411 5405 5400 5395 5389 5384 5378
5490 5490 5488 5484 5481 5480 5479 5480 5481 5483 5485 5486 5487 5489 5489 5488 5486 5483 5481 5477 5473 5469 5465 5460 5457 5453 5449 5444 5440 5435 5430 5425 5420 5415 5410 5405 5400 5394 5389 5384 5379 5373 5368 5363